This is the latest recevied weather packets stored in our database for station/object KJ4EBE. If no packets are shown the sender has not sent any weather packets the latest 10 day(s).
| Time | Temp. | Humidity | Pressure | Rain* | Wind** | Luminosity | Snow |
|---|---|---|---|---|---|---|---|
| 1777737348 | 20° C | 62% | 1022.6 hPa | 0 mm | - | 583 W/m² | - |
| 1777737044 | 20° C | 61% | 1022.6 hPa | 0 mm | - | 568 W/m² | - |
| 1777736741 | 19.44° C | 63% | 1022.4 hPa | 0 mm | - | 561 W/m² | - |
| 1777736118 | 20° C | 61% | 1022.3 hPa | 0 mm | - | 533 W/m² | - |
| 1777735810 | 20.56° C | 61% | 1022.3 hPa | 0 mm | - | 517 W/m² | - |
| 1777735507 | 21.11° C | 61% | 1022.2 hPa | 0 mm | - | 515 W/m² | - |
| 1777735204 | 20.56° C | 63% | 1022.3 hPa | 0 mm | - | 502 W/m² | - |
| 1777734901 | 20° C | 65% | 1022.4 hPa | 0 mm | - | 493 W/m² | - |
| 1777734598 | 19.44° C | 61% | 1022.4 hPa | 0 mm | - | 470 W/m² | - |
| 1777734295 | 20° C | 69% | 1022 hPa | 0 mm | - | 457 W/m² | - |
| 1777733991 | 20° C | 63% | 1022.1 hPa | 0 mm | - | 445 W/m² | - |
| 1777733688 | 18.89° C | 74% | 1022.2 hPa | 0 mm | - | 426 W/m² | - |
| 1777733384 | 20° C | 65% | 1022.2 hPa | 0 mm | - | 402 W/m² | - |
| 1777733081 | 18.89° C | 68% | 1022.1 hPa | 0 mm | - | 379 W/m² | - |
| 1777732778 | 18.89° C | 73% | 1022.1 hPa | 0 mm | - | 355 W/m² | - |
| 1777732475 | 18.33° C | 69% | 1022.2 hPa | 0 mm | - | 352 W/m² | - |
| 1777732172 | 19.44° C | 68% | 1022.1 hPa | 0 mm | - | 364 W/m² | - |
| 1777731869 | 18.89° C | 70% | 1022.2 hPa | 0 mm | - | 366 W/m² | - |
| 1777731566 | 18.33° C | 75% | 1022.1 hPa | 0 mm | - | 342 W/m² | - |
| 1777731264 | 18.33° C | 78% | 1022.1 hPa | 0 mm | - | 327 W/m² | - |
| 1777730961 | 17.78° C | 73% | 1022.1 hPa | 0 mm | - | 340 W/m² | - |
| 1777730660 | 17.78° C | 77% | 1022 hPa | 0 mm | - | 336 W/m² | - |
| 1777730355 | 17.22° C | 81% | 1021.9 hPa | 0 mm | - | 307 W/m² | - |
| 1777730052 | 16.67° C | 80% | 1021.9 hPa | 0 mm | - | 284 W/m² | - |
| 1777729748 | 15.56° C | 81% | 1021.7 hPa | 0 mm | - | 281 W/m² | - |
* Rain latest hour (hover to see other rain measurements)
** Current wind speed in m/s (hover to see current wind gust speed)